Location: Kershaw
(34.5481°N, 80.5823°W)
Time: 13:34:52
(UTC+00:00)

A-11 Canister half - Pass Details

Date: 09 October 2022
Orbit: 1524 x 1685 km, 47.3° (Epoch: 25 November)

Event Time Altitude Azimuth Distance (km) Brightness Sun altitude
Rises 23:11:40 0° 300° (WNW) 4,678 12.6 -4.2°
Reaches altitude 10° 23:14:54 10° 307° (NW) 3,703 11.8 -4.8°
Maximum altitude 23:23:50 47° 19° (NNE) 1,970 9.5 -6.7°
Drops below altitude 10° 23:33:00 10° 92° (E) 3,796 10.4 -8.5°
Enters shadow 23:33:08 10° 92° (E) 3,835 10.4 -8.6°
